Location: Eboldshausen
(51.7766°N, 10.0050°E)
Time: 15:25:25
(UTC+00:00)

Resurs 01 Rocket - Pass Details

Date: 15 November 2025
Orbit: 626 x 637 km, 97.7° (Epoch: 13 December)

Event Time Altitude Azimuth Distance (km) Brightness Sun altitude
Exits shadow 16:26:28 11° 58° (ENE) 1,983 3.5 -8.9°
Maximum altitude 16:26:55 11° 52° (NE) 1,974 3.5 -8.9°
Drops below altitude 10° 16:28:05 10° 37° (NE) 2,037 3.7 -9.1°
Sets 16:31:59 0° 2° (N) 2,951 4.8 -9.7°
